Location: Monfort
(47.1967°N, 0.2115°W)
Time: 11:55:52
(UTC+00:00)

USA 305 - Pass Details

Date: 24 October 2020
Orbit: 569 x 577 km, 54.0° (Epoch: 22 November)

Event Time Altitude Azimuth Distance (km) Brightness Sun altitude
Rises 19:17:17 0° 299° (WNW) 2,787 7.6 -24.5°
Reaches altitude 10° 19:19:35 10° 304° (NW) 1,885 6.4 -24.9°
Enters shadow 19:22:59 46° 341° (NNW) 776 3.6 -25.4°
